Tracking 19795 objects as of 17-Jul-2019
HD Live streaming from Space Station
objects crossing your sky now

COSMOS 2147

Track COSMOS 2147 now!
10-day predictions
COSMOS 2147 is classified as:


NORAD ID: 21303
Int'l Code: 1991-033E
Perigee: 1,394.5 km
Apogee: 1,423.8 km
Inclination: 82.6 °
Period: 113.8 minutes
Semi major axis: 7780 km
RCS: 1.105 m2 (large)
Launch date: May 16, 1991
Source: Commonwealth of Independent States (former USSR) (CIS)
Launch site: PLESETSK MISSILE AND SPACE COMPLEX (PKMTR)
aabbcc
Your satellite tracking list
Your tracking list is empty




NASA's NSSDC Master Catalog

Two Line Element Set (TLE):
1 21303U 91033E   19198.23244324  .00000025  00000-0  77789-4 0  9996
2 21303  82.5670  98.6085 0018862 358.8347 159.2598 12.65087527300788
Source of the keplerian elements: AFSPC